{"data":{"norad_id":61886,"epoch":"2026-05-24T19:22:48.405216Z","epoch_age_seconds":88794,"freshness":"FRESH","line1":"1 61886U 24204N   26144.80750469  .00000361  00000+0  78330-5 0  9992","line2":"2 61886  53.1579 340.7430 0000841  82.8122 277.2991 15.69706326 88871","mean_motion":15.69706326,"eccentricity":8.41e-5,"inclination_deg":53.1579,"raan_deg":340.743,"arg_perigee_deg":82.8122,"mean_anomaly_deg":277.2991,"bstar":7.833e-6,"rev_number":8887,"period_min":91.736904932369,"perigee_km":359.17060879635,"apogee_km":360.30391924756,"semimajor_km":6737.874264022,"source":"CELESTRAK","updated_at":"2026-05-25T13:38:19.477665Z"}}